Tracking 25707 objects as of 29-Jun-2022
HD Live streaming from Space Station
objects crossing your sky now

STARLINK-3967

Track STARLINK-3967 now!
10-day predictions
STARLINK-3967 is classified as:


NORAD ID: 52636
Int'l Code: 2022-052AQ
Perigee: 355.1 km
Apogee: 358.8 km
Inclination: 53.2 °
Period: 91.5 minutes
Semi major axis: 6727 km
RCS: Unknown
Launch date: May 14, 2022
Source: United States (US)
Launch site: AIR FORCE EASTERN TEST RANGE (AFETR)
aabbcc
Your satellite tracking list
Your tracking list is empty




NASA's NSSDC Master Catalog

Two Line Element Set (TLE):
1 52636U 22052AQ  22180.58334491  .00060806  00000-0  43473-3 0  9997
2 52636  53.2133 213.1957 0002801  14.5824 204.3953 15.73186571  1308
Source of the keplerian elements: AFSPC